This demonstration page uses our WeatherBlox Daily Observations layout. Learn more.

40.92945, -100.16068

Hourly Observations for March 25, 2020

Temp ( °F °C ) Dew Point ( °F °C ) Humidity (%) Winds ( mph kmh ) Pressure ( in mb ) Visibility ( mi km ) Precip ( " mm )
12:15 am 00:15 Clear 46 7.6 39 4 78 78 SE 3 6 29.81 1010 10 16.0934 0 0
12:35 am 00:35 Clear 46 7.6 40 4.5 81 81 SSE 3 6 29.81 1010 10 16.0934 0 0
12:55 am 00:55 Clear 48 8.7 41 5.1 78 78 S 5 7 29.8 1009 10 16.0934 0 0
1:15 am 01:15 Clear 45 7.4 41 5.2 86 86 SSW 6 9 29.81 1009 10 16.0934 0 0
1:35 am 01:35 Clear 44 6.4 41 4.9 90 90 Calm 29.81 1010 10 16.0934 0 0
1:55 am 01:55 Clear 42 5.4 39 3.8 90 90 Calm 29.82 1010 10 16.0934 0 0
2:15 am 02:15 Clear 38 3.5 37 2.6 94 94 WNW 3 6 29.83 1010 10 16.0934 0 0
2:35 am 02:35 Clear 38 3.5 37 2.8 95 95 NNW 3 6 29.84 1011 10 16.0934 0 0
2:55 am 02:55 Clear 37 2.7 36 2.3 97 97 ENE 6 9 29.84 1010 10 16.0934 0 0
3:15 am 03:15 Clear 39 4.1 38 3.2 94 94 E 3 6 29.82 1010 10 16.0934 0 0
3:35 am 03:35 Clear 37 2.8 37 2.5 98 98 E 6 9 29.82 1010 10 16.0934 0 0
3:55 am 03:55 Clear 37 2.7 36 2.4 98 98 E 7 11 29.82 1010 10 16.0934 0 0
4:15 am 04:15 Clear 39 3.8 37 2.6 92 92 ESE 5 7 29.8 1009 10 16.0934 0 0
4:35 am 04:35 Clear 38 3.5 37 2.5 93 93 Calm 29.79 1009 10 16.0934 0 0
4:55 am 04:55 Clear 37 2.6 36 2.1 97 97 ENE 3 6 29.8 1009 10 16.0934 0 0
5:15 am 05:15 Mostly Cloudy 35 1.8 35 1.4 97 97 ENE 3 6 29.81 1009 10 16.0934 0 0
5:35 am 05:35 Cloudy 37 2.5 36 2 97 97 NE 3 6 29.8 1009 10 16.0934 0 0
5:55 am 05:55 Partly Cloudy 37 2.7 36 2.1 96 96 ENE 3 6 29.79 1009 10 16.0934 0 0
6:15 am 06:15 Clear 36 2.2 35 1.7 97 97 E 5 7 29.78 1009 10 16.0934 0 0
6:35 am 06:35 Clear 37 2.5 35 1.9 96 96 ENE 7 11 29.77 1008 10 16.0934 0 0
6:55 am 06:55 Clear 38 3.5 37 2.6 94 94 ENE 7 11 29.75 1008 10 16.0934 0 0
7:15 am 07:15 Clear 39 4.1 37 2.5 89 89 E 7 11 29.75 1007 10 16.0934 0 0
7:35 am 07:35 Sunny 39 4.1 37 2.5 89 89 ESE 6 9 29.74 1007 10 16.0934 0 0
7:55 am 07:55 Sunny 37 2.9 36 2 94 94 S 6 9 29.75 1007 10 16.0934 0 0
8:15 am 08:15 Sunny 38 3.4 36 2.2 92 92 Calm 29.74 1007 10 16.0934 0 0
8:35 am 08:35 Sunny 38 3.2 37 2.6 96 96 Calm 29.74 1007 10 16.0934 0 0
8:55 am 08:55 Sunny 40 4.5 39 3.7 95 95 NNE 5 7 29.74 1007 10 16.0934 0 0
9:15 am 09:15 Sunny 43 5.9 40 4.2 89 89 E 3 6 29.73 1007 10 16.0934 0 0
9:35 am 09:35 Sunny 44 6.9 41 5 88 88 Calm 29.72 1006 10 16.0934 0 0
9:55 am 09:55 Sunny 47 8.5 44 6.4 87 87 Calm 29.69 1006 10 16.0934 0 0
10:15 am 10:15 Sunny 49 9.2 45 7 86 86 Calm 29.7 1006 10 16.0934 0 0
10:35 am 10:35 Sunny 51 10.6 46 8 84 84 W 3 6 29.68 1005 10 16.0934 0 0
10:55 am 10:55 Sunny 53 11.7 47 8.1 79 79 WNW 6 9 29.67 1005 10 16.0934 0 0
11:15 am 11:15 Sunny 55 12.6 46 8 74 74 W 7 11 29.67 1005 10 16.0934 0 0
11:35 am 11:35 Sunny 56 13.5 47 8.4 71 71 W 5 7 29.64 1004 10 16.0934 0 0
11:55 am 11:55 Sunny 58 14.6 47 8.4 67 67 WNW 7 11 29.63 1003 10 16.0934 0 0
12:15 pm 12:15 Sunny 60 15.6 47 8.3 62 62 WNW 7 11 29.62 1003 10 16.0934 0 0
12:35 pm 12:35 Sunny 62 16.9 49 9.2 61 61 WNW 5 7 29.61 1003 10 16.0934 0 0
12:55 pm 12:55 Sunny 66 18.8 47 8.2 50 50 W 12 19 29.59 1002 10 16.0934 0 0
1:15 pm 13:15 Sunny 68 20 44 6.6 42 42 WNW 16 26 29.58 1002 10 16.0934 0 0
1:35 pm 13:35 Sunny 69 20.3 44 6.9 42 42 WNW 14 22 29.58 1002 10 16.0934 0 0
1:55 pm 13:55 Sunny 70 21.2 42 5.6 36 36 WNW 15 24 29.57 1001 10 16.0934 0 0
2:15 pm 14:15 Sunny 71 21.4 41 5.1 35 35 W 17 28 29.57 1001 10 16.0934 0 0
2:35 pm 14:35 Sunny 71 21.4 43 6.2 37 37 WNW 18 30 29.56 1001 10 16.0934 0 0
2:55 pm 14:55 Sunny 71 21.5 43 5.9 36 36 WNW 14 22 29.57 1001 10 16.0934 0 0
3:15 pm 15:15 Sunny 71 21.5 41 5 34 34 WNW 17 28 29.56 1001 10 16.0934 0 0
3:35 pm 15:35 Sunny 71 21.7 42 5.5 35 35 NW 16 26 29.56 1001 10 16.0934 0 0
3:55 pm 15:55 Sunny 70 21.3 39 3.8 32 32 NW 21 33 29.57 1001 10 16.0934 0 0
4:15 pm 16:15 Sunny 71 21.5 38 3.6 31 31 WNW 17 28 29.57 1001 10 16.0934 0 0
4:35 pm 16:35 Sunny 71 21.6 39 4.1 32 32 NW 18 30 29.57 1001 10 16.0934 0 0
4:55 pm 16:55 Sunny 71 21.4 38 3.3 31 31 NW 16 26 29.57 1001 10 16.0934 0 0
5:15 pm 17:15 Sunny 70 21.3 37 3 30 30 WNW 14 22 29.57 1001 10 16.0934 0 0
5:35 pm 17:35 Sunny 70 21 36 2.2 29 29 WNW 10 17 29.57 1002 10 16.0934 0 0
5:55 pm 17:55 Sunny 67 19.5 45 7.2 45 45 NNE 20 31 29.6 1002 10 16.0934 0 0
6:15 pm 18:15 Sunny 63 17.3 45 7.4 52 52 NE 20 31 29.63 1003 10 16.0934 0 0
6:35 pm 18:35 Sunny 62 16.5 44 6.8 53 53 NNE 20 31 29.64 1004 10 16.0934 0 0
6:55 pm 18:55 Sunny 60 15.6 43 6.3 54 54 NNE 17 28 29.65 1004 10 16.0934 0 0
7:15 pm 19:15 Sunny 57 14 44 6.6 61 61 NE 17 28 29.68 1005 10 16.0934 0 0
7:35 pm 19:35 Sunny 55 12.8 43 6.2 64 64 NE 21 33 29.69 1005 10 16.0934 0 0
7:55 pm 19:55 Sunny 52 11.1 42 5.6 69 69 NE 17 28 29.72 1006 10 16.0934 0 0
8:15 pm 20:15 Clear 49 9.3 42 5.3 76 76 NE 20 31 29.74 1007 10 16.0934 0 0
8:35 pm 20:35 Clear 47 8.1 41 4.8 80 80 NE 18 30 29.77 1008 10 16.0934 0 0
8:55 pm 20:55 Clear 45 7.4 40 4.5 82 82 ENE 16 26 29.79 1009 10 16.0934 0 0
9:15 pm 21:15 Clear 45 7 40 4.5 84 84 ENE 15 24 29.79 1009 10 16.0934 0 0
9:35 pm 21:35 Clear 44 6.4 40 4.4 87 87 ENE 15 24 29.81 1010 10 16.0934 0 0
9:55 pm 21:55 Mostly Cloudy 43 6 40 4.3 89 89 ENE 16 26 29.83 1010 10 16.0934 0 0
10:15 pm 22:15 Cloudy 42 5.8 40 4.2 90 90 NE 15 24 29.83 1010 10 16.0934 0 0
10:35 pm 22:35 Cloudy 42 5.8 39 4.1 89 89 ENE 16 26 29.85 1011 10 16.0934 0 0
10:55 pm 22:55 Cloudy 42 5.6 39 3.9 89 89 NE 16 26 29.85 1011 10 16.0934 0 0
11:15 pm 23:15 Cloudy 42 5.6 39 4 90 90 NE 13 20 29.85 1011 10 16.0934 0 0
11:35 pm 23:35 Cloudy 41 5.2 38 3.6 90 90 NE 17 28 29.85 1011 10 16.0934 0 0
11:55 pm 23:55 Cloudy 41 5.1 39 3.7 91 91 NE 15 24 29.85 1011 10 16.0934 0 0

Powered by AerisWeather